FW9813 Weather Reports


Display with metric or nautical units.
time (UTC)temp
F
wind
direction
speed
MPH
gust
MPH
rain 1hr
in
rain 24hr
in
rain mn
in
humidity
%
barometer
mb
20260505053044 42 198 3.0 9.0 0.00 0.00 0.00 53 1006.7
20260505051541 43 205 2.0 9.0 0.00 0.00 0.00 53 1006.7
20260505041540 44 202 4.0 10.0 0.00 0.00 0.00 51 1006.4
20260505040037 44 190 2.0 6.0 0.00 0.00 0.00 51 1006.2
20260505034548 45 229 4.0 10.0 0.00 0.00 0.00 50 1006.2
20260505033041 45 222 2.0 10.0 0.00 0.00 0.00 50 1006.1
20260505031548 45 140 2.0 8.0 0.00 0.00 0.00 50 1006.1
20260505030049 46 208 4.0 11.0 0.00 0.00 0.00 49 1006.0
20260505024552 46 238 3.0 11.0 0.00 0.00 0.00 48 1005.8
20260505023052 46 200 1.0 6.0 0.00 0.00 0.00 48 1005.8
20260505021545 46 155 1.0 7.0 0.00 0.00 0.00 47 1005.6
20260505020041 46 202 2.0 7.0 0.00 0.00 0.00 46 1005.4
20260505014547 47 201 3.0 10.0 0.00 0.00 0.00 45 1005.1
20260505013047 47 206 2.0 8.0 0.00 0.00 0.00 44 1004.8
20260505011551 48 225 4.0 11.0 0.00 0.00 0.00 43 1004.7
20260505010104 48 203 3.0 15.0 0.00 0.00 0.00 43 1004.5
20260505004543 49 179 3.0 13.0 0.00 0.00 0.00 44 1004.5
20260505003045 49 200 6.0 14.0 0.00 0.00 0.00 43 1004.4
20260505001540 49 209 8.0 18.0 0.00 0.00 0.00 42 1004.4
20260505000049 49 206 9.0 23.0 0.00 0.00 0.00 42 1004.2
20260504234543 50 238 7.0 22.0 0.00 0.00 0.00 44 1004.0
20260504233043 51 212 8.0 22.0 0.00 0.00 0.00 43 1003.8
20260504231545 51 182 7.0 18.0 0.00 0.00 0.00 42 1003.5
20260504230050 52 170 6.0 21.0 0.00 0.00 0.00 40 1003.3
20260504224545 52 167 9.0 18.0 0.00 0.00 0.00 41 1003.2
20260504223057 53 168 6.0 20.0 0.00 0.00 0.00 40 1003.0
20260504221555 53 192 7.0 17.0 0.00 0.00 0.00 41 1002.7
20260504220037 53 232 6.0 22.0 0.00 0.00 0.00 41 1002.7
20260504214537 53 223 7.0 21.0 0.00 0.00 0.00 41 1002.4
20260504213058 54 240 7.0 15.0 0.00 0.00 0.00 42 1002.2
20260504211547 55 250 7.0 17.0 0.00 0.00 0.00 41 1001.9
20260504210041 55 219 7.0 21.0 0.00 0.00 0.00 42 1001.9
20260504204540 56 244 7.0 19.0 0.00 0.00 0.00 41 1001.6
20260504203050 56 219 7.0 21.0 0.00 0.00 0.00 43 1001.5
20260504201542 56 200 6.0 15.0 0.00 0.00 0.00 43 1001.5
20260504200038 58 217 7.0 15.0 0.00 0.00 0.00 42 1001.3
20260504194543 57 159 6.0 19.0 0.00 0.00 0.00 44 1001.1
20260504193037 58 184 5.0 15.0 0.00 0.00 0.00 43 1000.7
20260504191546 58 141 7.0 20.0 0.00 0.00 0.00 43 1000.8
20260504190041 59 246 8.0 23.0 0.00 0.00 0.00 43 1000.3
20260504184540 57 189 6.0 17.0 0.00 0.00 0.00 45 1000.1
20260504183043 57 134 7.0 19.0 0.00 0.00 0.00 46 1000.1
20260504181548 58 289 6.0 17.0 0.00 0.00 0.00 46 999.7
20260504180050 58 261 9.0 19.0 0.00 0.00 0.00 46 999.5
20260504174545 58 200 7.0 18.0 0.00 0.00 0.00 45 999.3
20260504173040 57 171 8.0 21.0 0.00 0.00 0.00 45 999.2
20260504171539 58 233 7.0 22.0 0.00 0.00 0.00 41 999.3
20260504081551 56 44 1.0 10.0 0.00 0.00 0.00 43 996.4